Regional Weather Roundup
Issued by NWS Mt. Holly, NJ

Home | Current Version | Previous Version | Text Only | Print | Product List | Glossary On
Versions: 1 2 3 4 5 6 7 8 9 10 11 12 13 14 15 16 17 18 19 20 21 22 23 24 25 26 27
000
ASUS41 KPHI 050612
RWRPHI

REGIONAL WEATHER ROUNDUP
NATIONAL WEATHER SERVICE MOUNT HOLLY NJ
200 AM EDT THU MAY 05 2016

NOTE:  "FAIR" INDICATES FEW OR NO CLOUDS BELOW 12,000 FEET WITH NO
SIGNIFICANT WEATHER AND/OR OBSTRUCTIONS TO VISIBILITY.

 * = STATION DOES NOT REPORT PRECIPITATION (E.G. RAIN, SNOW, ETC.)
        OR FOG.

NJZ015>026-050700-
SOUTHERN NEW JERSEY

CITY           SKY/WX    TMP DP  RH WIND       PRES   REMARKS
POMONA         CLOUDY    48  45  89 NE7       29.71S FOG
6HR MIN TEMP:  48; 6HR MAX TEMP:  49;

WILDWOOD*      CLOUDY   N/A N/A N/A NE13G18   29.69F
MILLVILLE      CLOUDY    49  46  90 NE10      29.70F
WRIGHTSTOWN    CLOUDY    46  46 100 NE6       29.71R FOG
MOUNT HOLLY    CLOUDY    48  45  89 NE6       29.73R
TRENTON        CLOUDY    48  44  86 NE9       29.72S
6HR MIN TEMP:  48; 6HR MAX TEMP:  50; 6HR PCP: TRACE;


$$
NJZ001>014-050700-
NORTHERN NEW JERSEY

CITY           SKY/WX    TMP DP  RH WIND       PRES   REMARKS
SUSSEX         CLOUDY    47  42  83 N8        29.74F
ANDOVER*         N/A     46  43  89 NE7       29.73F
MORRISTOWN     CLOUDY    48  41  76 NE5       29.74S
NEWARK         CLOUDY    49  43  80 NE12      29.73F
TETERBORO      CLOUDY    49  41  74 NE6       29.73F
CALDWELL       CLOUDY    48  30  49 NE8       29.74F
SOMERVILLE     CLOUDY    49  43  80 E6        29.72F
ALLAIRE*       CLOUDY    47  44  90 VRB6      29.73S
TOMS RIVER*    CLOUDY    46  43  87 NE8       29.73R

$$
PAZ043-044-047-054-055-060>062-066>071-050700-
EASTERN PENNSYLVANIA

CITY           SKY/WX    TMP DP  RH WIND       PRES   REMARKS
PHILADELPHIA   CLOUDY    50  46  86 E9        29.73S
6HR MIN TEMP:  50; 6HR MAX TEMP:  52; 6HR PCP: TRACE;

NORTH PHILA    CLOUDY    50  47  89 E9        29.74S FOG
BLUE BELL*     CLOUDY    46  45  93 E6        29.72R
DOYLESTOWN     CLOUDY    46  44  93 CALM      29.72S
QUAKERTOWN*    CLOUDY    48  46  93 E5        29.73S
PERKASIE*      CLOUDY    46  46 100 E5        29.73S
POTTSTOWN      CLOUDY    48  46  93 NE7       29.73S
LANCASTER      CLOUDY    49  47  93 E5        29.72F
COATESVILLE    CLOUDY    48  48 100 NE5G13    29.72S FOG
READING        CLOUDY    50  47  89 N5        29.71F
6HR MIN TEMP:  48; 6HR MAX TEMP:  51; 6HR PCP: TRACE;

ALLENTOWN      CLOUDY    49  44  83 NE10      29.72F
6HR MIN TEMP:  49; 6HR MAX TEMP:  51; 6HR PCP: TRACE;

MOUNT POCONO   CLOUDY    39  39 100 E10       29.70F FOG     WCI  32
6HR MIN TEMP:  40; 6HR MAX TEMP:  42; 6HR PCP: TRACE;

HAZLETON       CLOUDY    45  43  93 NE3       29.74S
LEHIGHTON      CLOUDY    48  45  87 E5        29.73F
WILKES BARRE   CLOUDY    47  44  90 VRB5      29.72S

$$
DEZALL-MDZ008-012-015-019-020-050700-
DELAWARE AND EASTERN MARYLAND

CITY           SKY/WX    TMP DP  RH WIND       PRES   REMARKS
WILMINGTON     CLOUDY    50  46  86 E13G18    29.72S
6HR MIN TEMP:  50; 6HR MAX TEMP:  51;

DOVER          CLOUDY    49  49 100 NE9       29.69F
GEORGETOWN     CLOUDY    49  46  90 E10       29.70F
6HR MIN TEMP:  49; 6HR MAX TEMP:  52;

EASTON         CLOUDY   N/A N/A N/A E3        29.74S
PATUXENT       CLOUDY    51  48  89 NE10      29.67F
OCEAN CITY     CLOUDY    49  47  93 NE10      29.68S
WALLOPS ISLAND CLOUDY    51  48  89 NE14G25   29.67S
CAMBRIDGE      CLOUDY    50  46  87 NE6       29.69S
SALISBURY      CLOUDY    50  47  89 NE14      29.68S

$$
PAZ001-021-NYZ056-072-MDZ011-DCZ001-050700-
OTHER NEARBY LOCATIONS

CITY           SKY/WX    TMP DP  RH WIND       PRES   REMARKS
HARRISBURG     CLOUDY    50  46  86 E5        29.72S FOG
STATE COLLEGE  CLOUDY    50  48  95 CALM      29.69F FOG
WILLIAMSPORT   CLOUDY    51  46  83 E9        29.71S
BINGHAMTON     CLOUDY    45  44  97 NE6       29.72S FOG
NEW YORK CITY  CLOUDY    48  41  76 E8G17     29.75F
BALTIMORE      DRIZZLE   50  48  93 E7        29.70S FOG
WASHINGTON DC  CLOUDY    53  49  86 NE14      29.70S

$$




USA.gov is the U.S. government's official web portal to all federal, state and local government web resources and services.